Temp
6 6 6 6 7 7 7 7 7 8 8 9 9 9 9 9 9 9 9 9 9 9 9 9 9 9 9 9 9 9 9 9 9 8 8 8 8 8 8 7 7 7 7 7 7 7 7 7 7 7 7 7 7 7 7 7 7 7 7 6 6 6 6 7 7 7 7 7 7 7 7 7 7 7 7 7 7 7 7 7 7 7 7 8 8 8
6 6 6 6 6 6 6 6 6 7 7 7 8 8 8 9 9 9 9 9 9 9 9 9 9 9 9 9 9 9 9 9 9 9 8 8 8 8 8 7 7 7 7 7 7 7 7 7 7 7 7 7 7 7 7 7 6 6 6 6 6 6 6 6 6 6 6 6 7 6 6 6 6 6 6 6 7 7 7 7 7 7 7 7 7 7
6 6 6 6 6 6 6 6 6 6 6 6 7 7 7 8 8 9 9 9 9 9 9 9 9 9 9 9 9 9 9 9 9 8 8 8 8 8 7 7 7 6 6 6 6 6 6 6 6 6 6 6 6 6 6 6 6 6 6 6 6 6 6 6 6 6 6 6 6 6 6 6 6 6 6 6 6 6 7 7 7 7 7 7 7 7
5 5 5 5 5 5 6 6 5 5 6 6 6 6 7 7 7 8 8 9 9 9 9 9 9 9 9 9 9 9 8 8 8 8 8 8 7 7 7 7 6 6 6 6 6 6 6 6 6 6 6 6 6 6 6 6 6 6 6 5 5 5 5 5 5 5 5 5 5 5 5 5 6 6 6 6 6 6 6 6 6 6 6 6 7 7
5 5 5 5 5 5 5 5 5 5 5 5 6 6 6 6 7 7 8 8 8 8 9 9 9 9 9 9 9 8 8 8 8 8 7 7 7 7 7 6 6 6 6 6 6 6 6 6 6 6 6 6 6 6 6 6 6 6 6 5 5 5 5 5 5 5 5 5 5 5 5 5 5 5 5 5 5 6 6 6 6 6 6 6 6 7
5 5 5 4 5 5 4 5 5 5 5 5 5 5 6 6 6 7 7 7 8 8 8 8 8 8 8 8 8 8 8 8 8 7 7 7 7 7 6 6 6 6 6 6 6 6 6 6 6 6 6 6 6 6 6 6 6 6 6 6 5 5 5 5 5 5 5 5 5 5 5 5 5 5 5 5 5 5 5 6 6 6 6 6 6 6
4 4 4 4 4 4 4 4 4 4 4 4 5 5 5 5 6 6 6 6 7 7 7 8 8 8 8 8 8 8 8 7 7 7 7 7 7 6 6 6 6 6 6 6 6 6 6 6 6 6 6 6 6 6 6 6 6 6 6 6 6 5 5 5 5 5 5 5 5 5 5 5 5 5 5 5 5 5 5 5 5 5 6 6 6 6
4 4 4 4 4 4 4 4 4 4 4 4 4 4 4 5 5 5 5 5 6 6 6 6 7 7 7 7 7 7 7 7 7 7 7 7 7 6 6 6 6 6 6 6 6 6 6 6 6 6 6 6 6 6 6 6 6 6 6 6 6 6 5 5 5 5 5 5 5 5 5 5 5 5 5 5 5 5 5 5 5 5 5 5 6 6
3 3 3 3 3 3 4 4 4 4 4 4 4 4 4 4 4 4 4 4 5 5 5 5 5 6 6 6 7 7 7 7 7 7 7 7 7 7 6 6 6 6 6 6 6 6 6 6 6 7 7 7 7 7 6 6 6 6 6 6 6 6 6 6 6 5 5 5 5 5 5 5 5 5 5 5 5 5 5 5 5 5 5 5 5 5
3 3 3 3 3 3 3 4 4 4 4 4 4 4 4 4 4 4 4 4 4 4 4 4 4 4 5 5 5 6 6 6 6 6 6 6 6 6 6 6 6 6 6 6 6 6 6 6 7 7 7 7 7 7 7 7 7 6 6 6 6 6 6 6 6 6 6 5 5 5 5 5 5 5 5 5 5 5 5 5 5 5 5 5 5 5
3 3 3 3 3 3 3 3 4 4 4 4 4 4 4 4 4 4 4 4 4 4 4 4 4 4 4 4 4 5 5 5 5 6 6 6 6 6 6 7 7 7 6 6 6 6 6 6 6 6 7 7 7 7 7 7 6 6 6 6 6 6 6 6 6 6 6 6 6 5 5 5 5 5 5 5 5 5 5 4 4 4 4 5 5 5
3 3 3 3 3 3 3 3 3 3 3 3 3 3 4 4 4 3 3 3 3 4 3 3 4 4 4 4 4 4 4 4 4 5 5 5 6 6 6 6 6 6 6 6 6 6 6 6 6 6 6 6 6 6 6 6 6 6 6 6 6 6 6 6 6 6 6 6 6 5 5 5 5 5 5 5 5 5 5 4 4 4 4 4 4 4
3 3 3 3 3 3 3 3 3 3 3 3 3 3 3 4 3 3 3 3 3 3 3 3 3 3 4 4 4 4 4 4 4 4 4 5 5 5 6 6 6 6 6 6 6 6 6 7 6 6 6 6 6 6 6 6 6 6 6 6 6 6 6 5 5 5 5 5 5 5 5 5 5 5 5 5 5 5 4 4 4 4 4 4 4 4
3 3 3 3 3 3 3 3 3 3 3 3 3 3 3 3 3 3 3 3 3 3 3 3 3 3 3 3 4 4 4 4 4 4 4 4 4 5 5 5 5 5 5 5 6 6 6 6 6 6 7 7 7 6 6 6 6 6 6 5 5 5 5 5 5 5 5 5 5 5 5 5 5 5 5 5 5 5 4 4 4 4 4 4 4 4
3 3 3 3 3 3 3 3 3 3 3 3 3 3 3 3 3 3 3 3 3 3 3 3 3 3 3 3 4 4 4 4 4 4 4 4 4 4 4 5 4 4 4 5 5 5 6 6 6 6 6 6 6 6 6 6 6 6 5 5 5 5 5 5 5 5 5 5 5 5 5 5 5 5 5 5 5 4 4 4 4 4 4 4 4 4
3 3 3 3 3 3 3 3 3 3 3 3 3 4 4 3 3 3 3 3 3 3 3 3 3 3 3 4 4 4 4 4 4 4 4 4 4 4 4 4 4 4 4 4 4 4 5 5 6 6 6 6 6 6 6 5 5 5 5 5 5 5 5 5 5 5 5 5 5 5 5 5 5 5 5 5 5 4 4 4 4 4 4 4 4 4
2 2 2 2 3 3 3 3 3 3 3 3 3 3 3 3 3 3 3 3 3 3 3 3 3 3 4 4 4 4 4 4 4 4 4 4 3 3 3 4 3 3 3 4 4 4 4 5 5 5 5 6 6 5 5 5 5 5 5 5 5 5 5 5 5 5 5 5 5 5 5 5 5 5 5 4 4 4 4 4 4 4 4 4 4 4
2 2 2 2 2 2 2 3 3 3 3 3 3 3 3 3 3 3 3 3 3 3 3 3 3 3 3 4 4 4 4 4 4 3 3 3 3 3 3 3 3 3 3 3 3 4 4 5 5 5 5 5 5 5 5 4 4 4 4 4 4 4 4 4 4 4 4 4 4 4 4 4 4 4 4 4 4 4 4 4 4 4 4 4 4 4
2 2 2 2 2 2 2 2 2 2 3 3 3 3 3 3 3 3 3 2 2 2 2 3 3 3 3 3 3 3 3 3 3 3 3 3 3 3 3 3 3 3 3 3 3 4 4 4 5 5 5 5 5 5 4 4 4 4 4 4 4 4 4 4 4 4 4 4 4 4 4 4 4 4 4 4 4 4 4 4 4 4 4 3 3 3
1 1 1 1 2 2 2 2 2 2 2 3 3 3 3 2 2 2 2 2 2 2 2 2 2 2 2 3 3 3 3 3 3 3 2 2 3 3 3 3 3 3 3 3 3 3 4 4 4 4 5 5 5 5 4 4 4 4 4 4 4 4 4 4 4 4 4 4 4 4 4 4 4 4 4 4 3 3 3 3 3 3 3 3 3 3
1 1 1 1 1 2 2 2 2 2 2 2 2 2 2 2 2 2 2 2 2 2 2 2 2 2 2 2 2 2 2 3 3 2 2 2 3 3 3 3 3 3 3 3 3 3 3 3 4 4 4 5 5 5 4 4 4 4 4 4 4 4 4 4 4 4 4 4 4 4 3 3 3 3 3 3 3 3 3 3 3 3 3 3 3 3
1 1 1 1 1 1 2 2 2 2 2 2 2 2 2 2 2 2 2 2 2 2 2 2 2 2 2 2 2 2 2 2 2 2 2 2 3 3 3 3 3 3 3 3 3 3 3 3 3 4 4 4 4 4 4 4 4 4 4 4 4 4 4 4 4 4 4 4 3 3 3 3 3 3 3 3 3 3 3 3 3 3 3 3 3 3
1 1 1 2 1 1 1 1 1 2 2 2 2 2 2 2 2 2 2 2 2 2 2 2 2 2 2 2 2 2 2 3 3 2 2 2 3 3 3 3 3 3 3 3 3 3 3 3 3 3 4 4 4 4 4 4 4 4 4 4 4 4 4 4 4 4 3 3 3 3 3 3 3 3 3 3 2 2 2 2 2 2 3 3 3 3
2 2 2 2 2 1 1 1 1 1 2 2 2 2 2 2 2 2 2 2 2 2 2 2 2 2 2 2 2 2 2 2 2 2 2 2 2 3 3 3 3 3 2 3 3 3 3 3 3 3 4 4 4 4 4 4 4 4 4 4 4 4 4 4 3 3 3 3 3 3 3 3 3 3 2 2 2 2 2 2 2 2 2 2 2 2
2 1 1 1 1 1 1 1 1 1 1 2 2 2 2 2 2 2 2 2 2 2 2 2 2 2 2 2 2 2 3 3 3 2 2 2 2 3 3 3 2 2 2 2 2 3 3 3 3 3 3 4 4 4 4 4 4 4 4 4 4 4 4 3 3 3 3 3 3 3 3 3 3 3 2 2 2 2 2 2 2 2 2 2 2 2
1 1 1 1 1 1 1 1 1 1 2 2 2 2 2 2 2 2 2 2 2 2 2 2 2 2 2 2 3 3 3 3 3 2 2 2 2 2 2 2 2 2 2 2 2 2 2 3 3 3 3 4 4 4 4 4 4 4 4 4 4 3 3 3 3 3 3 3 3 3 3 3 3 3 2 2 2 2 2 2 2 2 2 2 2 2
1 1 1 1 1 1 2 2 2 2 2 2 2 2 2 2 2 2 2 2 2 2 2 2 2 2 2 2 2 2 2 2 2 2 2 2 2 2 2 2 2 2 2 2 2 2 2 2 2 3 3 4 4 4 4 4 4 4 4 4 3 3 3 3 3 3 3 3 3 3 3 3 3 3 2 2 2 2 2 2 2 2 2 2 2 2
1 1 1 1 2 2 2 2 2 2 2 2 2 2 2 2 2 2 2 2 2 2 1 1 1 2 2 2 2 2 2 2 2 2 2 2 1 2 2 2 2 2 2 2 2 2 2 2 2 3 3 3 4 4 4 5 4 4 4 4 4 3 3 3 3 3 3 3 3 3 3 3 3 3 2 2 2 2 2 2 2 2 2 2 2 2
1 1 1 1 1 1 1 1 1 1 1 1 1 1 1 1 1 1 1 1 1 1 1 1 1 1 1 2 2 2 2 2 2 2 2 1 1 1 1 2 2 2 2 2 2 2 2 2 2 3 3 3 4 4 4 5 5 4 4 4 4 4 4 3 3 3 3 3 3 3 3 3 3 3 3 2 2 2 2 2 2 2 2 2 2 2
1 1 1 1 1 1 1 1 1 1 1 1 1 1 1 1 1 1 1 1 1 1 1 1 1 1 1 1 1 1 2 2 2 2 2 2 1 1 1 1 2 2 2 2 2 2 2 2 3 3 3 3 3 4 4 4 5 4 4 4 4 4 4 4 4 4 3 3 3 3 3 3 3 3 3 2 2 2 2 2 1 1 1 1 1 1
1 1 1 1 1 1 1 0 0 0 0 0 0 1 1 1 1 1 1 1 1 1 1 1 1 1 1 1 1 1 2 2 2 2 2 2 1 1 1 2 2 2 2 2 2 2 2 3 3 3 3 3 3 3 4 4 4 4 4 4 4 4 4 4 3 3 3 3 3 3 3 3 3 3 3 2 2 2 1 1 1 1 1 1 1 1
0 0 0 0 0 0 0 0 -0 -0 -0 0 0 0 0 0 0 1 1 1 1 1 1 1 1 1 1 1 1 1 1 2 2 2 2 1 1 1 1 2 2 2 2 2 2 2 2 2 3 3 3 3 3 3 3 3 4 4 4 3 3 3 3 3 3 3 3 3 2 2 2 2 2 2 2 2 2 1 1 1 1 1 1 1 1 1
0 -0 -0 -0 -0 -0 -0 -0 -0 -0 -0 -0 -0 -0 -0 -0 -0 0 0 0 0 0 0 0 0 0 0 1 1 1 1 1 1 1 1 1 1 1 1 1 1 1 2 2 2 2 2 2 2 2 2 2 2 3 3 3 3 3 3 3 3 3 3 3 2 2 2 2 2 2 2 2 2 2 2 2 1 1 1 1 1 1 1 0 0 0
-0 -1 -1 -1 -1 -1 -1 -1 -1 -1 -1 -1 -1 -1 -1 -1 -0 -0 -0 -0 -0 0 0 0 0 0 0 0 0 0 1 1 1 1 1 1 1 1 1 1 1 1 1 1 1 2 2 2 2 2 2 2 2 2 2 2 2 2 2 2 2 2 2 2 2 2 2 2 2 2 2 2 2 1 1 1 1 1 1 1 1 0 0 0 -0 -0
-1 -1 -1 -1 -1 -1 -1 -1 -1 -1 -1 -1 -1 -1 -1 -1 -1 -1 -0 -0 -0 -0 -0 0 0 0 0 0 0 0 1 1 1 1 1 1 1 1 1 1 1 1 1 1 1 2 2 2 2 2 2 2 2 2 2 2 2 2 2 2 2 2 2 2 2 2 1 1 1 1 1 1 1 1 1 1 1 1 1 1 0 0 -0 -0 -0 -1
-1 -1 -2 -2 -2 -2 -2 -2 -2 -2 -1 -1 -1 -1 -1 -1 -1 -1 -0 -0 -0 -0 -0 0 0 0 0 0 0 0 0 1 1 1 1 1 1 1 1 1 1 1 1 1 1 1 1 1 2 2 2 2 2 2 2 2 2 2 2 2 2 2 2 2 1 1 1 1 1 1 1 1 1 1 1 1 1 1 0 0 -0 -0 -1 -1 -1 -1
-2 -2 -2 -2 -2 -2 -2 -2 -2 -2 -2 -1 -1 -1 -1 -1 -1 -1 -1 -0 -0 -0 -0 -0 -0 -0 0 0 0 0 0 0 0 1 1 1 1 1 1 1 1 1 1 1 1 1 1 1 1 2 2 2 2 2 2 2 2 2 2 2 2 2 2 2 1 1 1 1 1 1 1 1 1 1 0 0 0 0 -0 -0 -1 -1 -1 -1 -1 -1
-2 -2 -2 -2 -2 -2 -2 -2 -2 -2 -2 -1 -1 -1 -1 -1 -1 -1 -1 -1 -1 -1 -1 -1 -1 -0 -0 -0 -0 -0 0 0 0 0 0 0 0 0 0 0 0 1 1 1 1 1 1 1 1 2 2 2 2 2 2 2 2 2 2 2 2 2 2 1 1 1 1 1 1 0 0 0 0 0 0 -0 -0 -0 -1 -1 -1 -1 -1 -1 -1 -2
-2 -2 -2 -2 -2 -2 -2 -2 -2 -2 -2 -2 -2 -2 -1 -1 -1 -1 -1 -1 -1 -1 -1 -1 -1 -1 -1 -1 -0 -0 -0 0 0 0 0 0 0 0 -0 -0 0 0 0 1 1 1 1 1 1 2 2 2 2 2 2 2 2 2 2 1 1 1 1 1 1 1 1 0 0 0 0 0 -0 -0 -0 -0 -1 -1 -1 -1 -1 -1 -1 -1 -2 -2
-2 -2 -2 -2 -2 -2 -2 -2 -2 -2 -2 -2 -2 -2 -2 -2 -2 -2 -2 -2 -2 -2 -2 -1 -1 -1 -1 -1 -1 -1 -0 -0 -0 -0 -0 -0 -0 -0 -0 -0 -0 0 0 0 0 1 1 1 1 1 2 2 2 2 2 2 2 2 1 1 1 1 1 1 1 0 0 0 -0 -0 -0 -0 -0 -1 -1 -1 -1 -1 -1 -1 -1 -2 -2 -2 -2 -2
-2 -2 -2 -2 -2 -2 -2 -2 -2 -2 -2 -2 -2 -2 -2 -2 -2 -2 -2 -2 -2 -2 -2 -2 -2 -2 -2 -1 -1 -1 -1 -1 -0 -0 -0 -0 -0 -0 -0 -0 -0 -0 0 0 0 1 1 1 1 1 1 1 1 2 2 2 2 2 2 1 1 1 1 0 0 0 -0 -0 -0 -1 -1 -1 -1 -1 -1 -1 -1 -1 -2 -2 -2 -2 -2 -2 -2 -3
-2 -2 -2 -2 -2 -2 -2 -2 -2 -2 -2 -2 -2 -2 -2 -2 -2 -2 -2 -2 -2 -2 -2 -2 -2 -2 -2 -2 -1 -1 -1 -1 -1 -1 -0 -0 -0 -0 -0 -0 -0 -0 0 0 0 1 1 1 1 1 1 1 1 1 1 1 2 2 2 1 1 1 0 -0 -0 -0 -0 -1 -1 -1 -1 -1 -1 -1 -1 -1 -2 -2 -2 -2 -2 -2 -2 -3 -3 -3
-2 -2 -2 -2 -2 -2 -2 -2 -2 -2 -2 -2 -2 -2 -2 -2 -2 -2 -2 -2 -2 -2 -2 -2 -2 -2 -1 -1 -1 -1 -1 -1 -0 -0 -0 -0 -0 0 0 0 0 0 0 0 0 1 1 1 1 1 1 1 1 1 1 1 1 1 1 1 1 0 -0 -1 -1 -0 -0 -1 -1 -1 -1 -1 -1 -1 -2 -2 -2 -2 -2 -2 -2 -3 -3 -3 -3 -3
-2 -2 -2 -2 -2 -2 -2 -2 -2 -2 -2 -2 -2 -2 -2 -2 -2 -2 -2 -2 -2 -2 -1 -1 -1 -1 -1 -1 -0 -0 -0 0 0 0 0 0 0 1 1 1 1 0 0 0 0 1 1 1 1 1 1 1 1 1 1 1 1 1 1 1 0 0 -0 -0 -1 -1 -1 -1 -1 -1 -1 -1 -2 -2 -2 -2 -2 -2 -3 -3 -3 -3 -3 -3 -4 -4
-3 -2 -2 -2 -2 -2 -2 -2 -2 -2 -2 -2 -2 -2 -2 -2 -2 -2 -2 -2 -1 -1 -1 -1 -1 -1 -1 -1 -1 -1 -0 -0 -0 0 0 0 0 1 1 1 1 1 0 0 0 1 1 1 1 1 1 1 1 1 1 1 1 1 1 0 0 -0 -0 -0 -1 -1 -1 -1 -1 -2 -2 -2 -2 -2 -3 -3 -3 -3 -3 -3 -3 -4 -4 -4 -4 -4
-2 -2 -2 -2 -2 -2 -2 -2 -2 -2 -2 -2 -2 -2 -2 -2 -2 -2 -2 -2 -2 -2 -2 -2 -2 -2 -2 -1 -1 -1 -1 -1 -1 -0 -0 -0 0 0 1 1 1 1 1 0 0 1 1 1 1 1 1 1 1 1 0 0 0 0 0 0 -0 -1 -1 -1 -1 -1 -1 -1 -2 -2 -2 -2 -3 -3 -3 -4 -4 -4 -4 -4 -4 -4 -4 -4 -4 -4
-2 -2 -2 -2 -2 -2 -2 -2 -2 -2 -2 -2 -2 -2 -2 -2 -2 -2 -2 -2 -2 -2 -2 -2 -2 -2 -1 -1 -1 -1 -1 -1 -1 -0 -0 -0 0 0 1 1 1 1 1 1 1 1 1 1 1 1 1 0 0 0 0 0 -0 -0 -0 -1 -1 -1 -1 -1 -1 -1 -2 -2 -2 -2 -2 -2 -3 -3 -4 -4 -4 -4 -4 -4 -4 -5 -5 -5 -5 -5
-2 -2 -2 -2 -2 -2 -2 -2 -2 -2 -2 -2 -2 -2 -2 -2 -2 -2 -2 -2 -2 -2 -2 -2 -2 -1 -1 -1 -1 -1 -1 -1 -1 -0 -0 0 0 1 1 1 1 1 1 1 1 0 0 0 0 0 0 -0 -0 -0 0 -0 -0 -1 -1 -1 -1 -1 -2 -2 -2 -2 -2 -2 -2 -2 -3 -3 -3 -4 -4 -4 -4 -5 -5 -5 -5 -5 -5 -5 -5 -5
-2 -2 -2 -2 -2 -2 -2 -2 -2 -2 -2 -2 -2 -2 -2 -2 -2 -2 -2 -2 -2 -2 -2 -2 -2 -1 -1 -1 -1 -1 -1 -1 -1 -0 -0 0 1 1 1 1 1 1 0 -0 -0 -0 -0 -0 -0 -0 -1 -1 -1 -1 -1 -1 -1 -1 -1 -1 -2 -2 -2 -2 -2 -2 -2 -2 -3 -3 -3 -3 -3 -4 -4 -4 -5 -5 -5 -5 -5 -5 -5 -5 -5 -5
-2 -2 -2 -2 -2 -2 -2 -2 -2 -2 -2 -2 -2 -2 -2 -2 -2 -2 -2 -2 -2 -2 -2 -1 -1 -1 -1 -1 -1 -1 -0 -0 -0 0 0 1 1 1 1 1 1 0 -0 -1 -1 -1 -1 -1 -1 -1 -1 -1 -1 -1 -1 -1 -1 -1 -2 -2 -2 -2 -2 -2 -3 -3 -3 -3 -3 -3 -3 -3 -4 -4 -4 -5 -5 -5 -5 -5 -5 -5 -5 -5 -5 -5
-2 -2 -2 -2 -2 -2 -2 -2 -2 -2 -2 -2 -2 -2 -2 -2 -2 -2 -2 -2 -2 -2 -1 -1 -1 -1 -1 -1 -0 -0 -0 0 0 0 0 1 1 1 1 1 1 0 -1 -1 -1 -1 -1 -1 -1 -1 -1 -1 -1 -1 -2 -2 -2 -2 -2 -2 -2 -3 -3 -3 -3 -3 -3 -3 -3 -3 -4 -4 -4 -4 -5 -5 -5 -6 -5 -5 -5 -5 -5 -5 -5 -5
Height
778 778 778 778 778 778 778 779 778 778 778 778 778 778 778 777 777 777 777 777 776 776 776 776 776 776 776 776 776 776 776 777 777 777 776 776 776 776 776 775 775 775 774 774 774 773 773 772 772 771 771 770 770 770 769 769 768 768 768 768 768 767 767 767 767 767 767 766 766 766 766 765 765 764 764 763 763 763 763 762 762 762 762 762 762 762
778 778 778 778 778 778 778 778 778 778 777 777 777 777 776 776 775 775 775 775 775 775 774 774 774 774 774 774 774 775 775 775 775 775 775 775 775 775 774 774 774 773 773 773 772 772 771 771 770 770 769 769 768 768 768 767 767 766 766 766 766 765 765 765 765 765 764 764 764 764 763 763 763 762 762 762 761 761 761 761 760 760 760 760 760 760
777 777 777 777 777 777 777 777 777 777 777 776 776 776 775 775 774 774 774 774 774 773 773 773 773 773 773 773 773 773 773 773 773 773 773 773 773 773 773 773 773 772 772 771 771 770 770 769 769 768 768 768 767 767 766 766 765 765 764 764 763 763 763 763 763 763 762 762 762 761 761 761 761 760 760 760 759 759 759 759 759 758 758 758 758 758
776 776 776 776 776 776 776 776 776 776 776 775 775 775 774 774 774 773 773 773 773 773 773 773 772 772 772 772 772 772 772 772 772 772 772 772 772 772 771 771 771 771 770 770 769 769 768 768 767 767 766 766 765 765 764 764 763 763 763 762 762 762 761 761 761 761 760 760 760 759 759 759 759 758 758 758 758 758 758 757 757 757 757 756 756 756
775 775 775 775 775 775 775 775 774 774 774 774 774 774 773 773 773 773 772 772 772 772 772 772 772 771 771 771 771 770 770 770 770 770 770 770 770 770 770 770 769 769 769 768 768 767 767 766 765 765 764 764 763 763 763 762 762 761 761 760 760 760 759 759 759 759 758 758 758 758 758 757 757 757 756 756 756 756 755 755 755 755 754 754 754 754
774 774 774 774 774 774 774 773 773 773 773 773 772 772 772 772 772 772 771 771 771 771 771 771 771 771 770 770 770 770 769 769 769 769 769 768 768 768 768 768 768 767 767 766 766 765 765 764 763 763 762 762 761 761 760 760 759 759 758 758 758 758 758 757 757 757 757 756 756 756 756 755 755 754 754 754 754 753 753 753 753 753 753 753 752 752
773 773 774 774 773 773 773 773 773 773 772 772 771 771 771 771 771 770 770 770 770 770 770 770 770 770 769 769 769 769 768 768 768 768 768 767 767 767 767 766 766 765 765 764 764 763 763 762 761 761 760 760 759 759 758 758 757 757 757 756 756 756 756 755 755 755 754 754 754 754 753 753 753 753 752 752 752 751 751 751 751 751 751 750 750 750
773 773 773 773 773 773 772 772 772 772 772 772 771 770 770 769 769 769 769 769 769 769 768 768 768 768 768 768 768 768 768 767 767 766 766 766 765 765 765 764 764 763 763 762 762 761 760 760 759 758 758 757 757 757 756 756 755 755 755 754 754 754 753 753 753 753 752 752 752 752 751 751 751 750 750 750 749 749 749 749 749 748 748 748 748 748
773 773 773 773 773 773 772 772 772 772 772 772 772 771 770 769 768 768 768 768 768 768 768 767 767 766 767 767 767 767 766 766 766 765 765 764 764 763 763 762 762 761 761 760 760 759 758 758 757 757 756 755 755 754 754 754 753 753 753 753 752 752 752 751 751 751 750 750 750 749 749 749 748 748 748 748 747 747 747 747 747 746 746 746 746 746
773 773 773 773 773 773 773 772 771 771 772 771 771 771 771 770 768 767 767 767 767 767 767 766 766 765 765 765 765 765 765 765 764 764 764 763 763 762 762 761 760 760 759 759 758 758 757 757 756 755 754 754 753 753 752 752 752 751 751 751 751 750 750 749 749 749 748 748 748 747 747 747 746 746 746 745 745 745 744 744 744 744 744 743 743 743
773 773 773 772 772 772 772 772 771 771 771 771 770 770 770 770 769 768 767 766 766 766 766 765 765 765 764 763 763 763 763 763 763 763 762 762 761 761 760 759 759 758 758 757 757 756 756 755 754 754 753 753 752 752 751 751 750 750 749 749 749 748 748 748 747 747 746 746 745 745 745 744 744 743 743 743 743 742 742 742 742 741 741 741 741 741
773 772 772 772 772 772 771 771 771 771 770 770 770 769 769 769 769 768 768 766 765 765 764 764 763 763 763 763 762 762 762 761 760 760 760 759 759 759 758 758 757 757 756 755 755 754 754 753 753 752 752 751 751 750 750 749 749 748 748 748 747 747 746 746 745 745 744 744 743 743 743 742 742 741 741 741 740 740 740 739 739 739 739 738 738 738
772 772 772 771 771 771 771 770 770 770 769 769 769 769 768 768 768 768 767 766 765 764 763 762 761 761 761 762 761 760 760 759 758 758 757 757 757 757 757 756 755 755 755 754 753 752 752 751 751 750 749 749 748 748 748 747 747 747 746 746 745 745 744 744 743 743 742 742 741 741 740 740 739 739 738 738 738 738 737 737 737 736 736 736 736 736
772 772 771 771 770 770 770 769 769 769 768 768 768 768 767 767 767 766 765 764 763 763 763 761 760 759 759 759 759 759 758 757 756 755 755 754 755 755 755 754 753 753 753 752 751 750 750 749 748 747 747 746 746 745 745 745 745 744 744 743 743 742 742 741 741 740 740 739 739 738 738 737 737 736 736 736 735 735 734 734 734 734 734 733 733 733
771 771 770 770 770 769 769 769 768 768 768 767 767 767 766 766 765 765 764 763 762 762 761 760 758 758 758 758 758 757 757 756 754 753 753 752 752 753 753 752 751 751 751 750 748 747 748 747 746 744 743 743 743 743 742 742 742 741 741 741 740 740 739 739 738 738 737 737 736 736 735 735 734 734 733 733 733 732 732 732 731 731 731 731 731 731
770 770 770 769 769 768 768 768 768 767 767 766 766 766 765 765 764 764 763 762 761 761 760 759 758 756 755 756 756 757 756 754 753 752 751 749 749 750 751 750 749 748 748 748 747 745 745 744 743 742 741 740 740 740 739 739 739 738 738 738 737 737 737 736 736 735 735 734 734 733 733 732 732 731 731 730 730 729 729 729 729 728 728 728 728 728
770 769 769 768 768 768 767 767 767 767 766 766 765 765 764 764 763 763 763 762 761 761 760 759 758 756 754 753 754 755 755 754 752 751 750 748 747 748 749 749 747 745 745 746 745 744 743 742 740 739 738 738 737 737 737 736 736 736 735 735 734 734 734 733 733 733 732 732 731 731 730 729 729 728 728 728 727 727 726 726 726 726 726 725 725 725
769 768 768 768 767 767 767 767 766 766 766 765 764 764 764 763 763 763 762 762 761 760 759 759 758 757 755 753 753 753 755 754 752 750 748 747 745 746 747 747 745 743 743 743 742 742 741 739 738 737 736 735 735 734 734 734 733 733 733 732 732 731 731 730 730 730 729 729 728 728 727 727 726 726 725 725 724 724 724 723 723 723 723 723 723 722
768 768 767 767 766 766 766 766 766 765 765 764 764 763 763 763 762 762 761 761 761 760 759 758 757 756 755 753 752 752 754 753 751 749 747 745 743 743 745 745 743 741 740 739 739 739 739 737 736 735 734 733 732 732 732 731 731 730 730 729 729 728 728 728 727 727 727 726 726 725 725 724 724 723 723 722 722 721 721 721 721 720 720 720 720 719
766 766 766 766 765 765 764 764 764 764 764 764 763 763 762 762 761 761 760 760 760 759 758 758 756 754 754 752 751 751 753 753 751 748 747 744 741 740 742 742 741 738 737 736 736 737 736 735 734 733 732 731 730 729 729 729 728 728 727 727 726 726 725 725 725 724 724 723 723 723 722 722 721 721 720 720 719 719 718 718 718 718 718 717 717 717
764 764 764 764 764 764 763 763 763 763 763 763 763 762 761 761 760 760 759 759 758 758 757 756 755 753 753 752 750 750 751 752 750 748 745 743 739 738 739 740 738 736 734 733 733 734 734 733 732 731 730 728 728 727 727 726 726 725 725 724 724 723 723 722 722 722 721 721 720 720 720 719 719 718 718 717 717 717 716 716 716 715 715 715 715 714
763 763 763 763 763 763 762 762 762 762 762 762 762 761 761 760 759 758 758 758 757 756 755 754 753 752 751 750 748 748 750 750 749 748 745 741 736 734 737 738 736 734 732 731 731 732 731 730 729 729 728 727 726 725 724 724 723 723 722 722 721 721 720 720 719 719 719 718 718 718 717 717 716 716 715 715 714 714 714 713 713 713 713 713 712 712
762 761 761 761 761 761 760 760 760 760 761 761 760 760 760 759 758 757 756 756 755 754 753 752 751 749 748 747 746 745 746 748 747 746 744 739 734 732 735 735 734 732 730 730 730 729 728 728 727 727 726 724 723 723 722 721 720 720 719 719 718 718 717 717 717 716 716 716 715 715 714 714 714 713 713 713 712 712 711 711 711 710 710 710 710 710
760 760 760 760 759 759 759 759 759 759 759 759 758 758 758 757 756 755 755 754 754 753 751 750 748 747 745 745 744 743 743 744 745 744 742 737 733 731 732 733 732 730 727 728 728 728 726 725 724 724 723 722 721 720 719 718 718 717 717 716 716 715 715 714 714 714 713 713 713 713 712 712 711 711 710 710 709 709 709 708 708 708 708 708 708 707
759 758 758 758 758 758 758 758 758 758 758 757 757 756 756 755 754 754 753 753 753 752 750 749 747 745 743 743 743 742 741 742 742 741 739 736 732 730 730 732 731 728 725 725 726 726 724 722 722 722 721 719 718 717 717 716 715 714 714 713 713 712 712 712 711 711 711 711 710 710 709 709 708 708 708 708 707 707 706 706 706 706 705 705 705 705
758 757 757 757 757 757 757 756 757 757 757 757 756 756 755 754 753 753 752 751 751 750 749 747 745 743 743 743 741 740 740 740 740 739 738 736 732 728 728 730 730 727 723 722 723 723 722 719 719 719 719 717 716 715 714 713 712 712 711 711 710 710 709 709 709 708 708 708 708 708 707 707 706 706 705 705 705 704 704 704 703 703 703 703 703 702
757 756 756 756 756 756 755 755 755 755 755 755 755 755 755 754 753 751 750 750 750 749 748 746 744 742 741 740 739 738 738 738 738 737 737 735 732 728 726 728 728 725 722 720 720 720 719 717 716 716 716 715 714 713 712 711 710 709 709 708 708 707 707 707 706 706 706 706 705 705 705 704 704 703 703 703 702 702 702 701 701 701 701 701 700 700
755 755 755 754 754 754 754 754 754 754 754 753 753 753 753 753 751 749 748 748 749 748 746 745 743 742 739 738 737 736 737 737 736 736 735 734 730 726 724 726 725 723 721 719 717 716 716 714 714 713 713 712 711 711 710 709 708 707 706 706 706 705 705 704 704 704 704 703 703 703 703 702 702 701 701 700 700 700 699 699 699 698 698 698 698 697
753 753 753 753 753 753 752 752 752 752 752 752 752 752 752 751 750 748 746 747 748 746 744 743 743 741 738 736 735 734 734 734 734 734 734 732 727 723 723 724 723 721 721 718 715 713 712 711 712 711 710 709 709 708 708 707 706 705 704 704 703 703 703 703 702 702 702 702 701 701 701 700 700 699 699 698 698 698 697 697 697 697 696 696 695 695
752 752 751 751 751 751 751 750 750 750 750 750 750 749 749 749 748 746 745 746 745 744 743 741 740 739 738 736 734 732 730 731 732 733 732 729 725 722 723 723 721 720 721 719 715 710 708 708 708 708 707 706 706 706 706 705 705 704 703 703 702 701 701 701 700 700 700 700 699 699 699 698 698 697 697 696 696 695 695 695 695 695 694 693 693 692
750 750 749 749 749 749 749 748 748 748 748 748 747 747 747 746 745 744 744 743 743 742 741 739 738 738 737 735 733 729 726 727 729 731 730 728 724 722 722 721 719 718 719 719 716 711 706 704 705 705 705 703 703 703 704 704 703 703 702 701 700 699 699 699 699 698 698 698 698 697 697 696 696 695 694 694 693 693 693 693 693 693 692 691 691 690
748 748 748 747 747 747 747 747 746 746 745 745 745 744 744 743 743 742 742 741 740 740 739 737 736 735 734 734 732 728 725 725 726 728 729 727 723 720 721 720 718 715 716 717 716 713 708 703 703 704 704 703 702 702 702 702 702 701 700 699 698 697 697 697 697 696 696 696 695 695 694 694 693 693 693 692 692 691 691 691 691 691 690 689 688 688
747 746 746 746 745 745 745 744 744 743 743 742 742 741 741 741 740 739 739 738 738 738 737 735 734 733 732 731 729 726 724 723 724 726 727 725 721 719 718 718 716 713 713 714 714 712 709 705 703 702 702 702 701 701 700 700 699 699 698 697 696 694 694 695 695 694 693 693 693 693 692 692 691 691 690 690 690 690 689 689 689 689 688 688 687 686
744 744 744 743 743 743 742 742 741 741 740 739 739 738 738 738 737 737 736 736 735 735 734 733 732 731 729 728 726 724 722 721 723 724 724 723 720 717 715 715 713 712 712 712 711 710 708 705 703 701 700 699 699 699 698 697 696 696 695 695 693 692 691 692 692 692 691 690 690 690 689 689 689 688 688 688 688 688 688 687 687 687 687 686 686 685
743 742 742 741 741 740 739 739 738 738 737 737 736 736 735 735 734 734 733 733 733 732 731 730 729 728 727 726 724 721 719 718 720 721 721 720 718 716 713 712 711 712 712 710 709 708 705 702 700 699 698 696 695 695 696 695 694 693 692 691 691 690 689 689 689 689 688 688 688 687 687 687 687 686 686 686 686 686 685 685 685 685 685 685 684 684
740 740 739 739 738 738 737 736 736 735 735 734 734 733 733 733 732 731 731 730 730 729 728 728 727 726 724 723 721 719 716 716 717 718 718 718 717 715 713 710 710 710 710 708 705 704 703 700 698 697 697 696 693 692 692 692 692 690 688 688 688 688 687 687 687 687 686 686 685 685 685 685 684 684 684 684 684 684 683 683 683 683 683 683 683 682
738 738 737 737 736 736 735 734 733 733 733 732 731 731 731 730 730 729 729 728 728 727 726 725 724 723 722 721 719 717 715 715 715 716 716 716 715 714 712 709 708 709 709 706 703 701 700 698 696 695 695 694 693 691 689 689 689 688 686 685 685 685 684 684 684 684 684 683 683 683 683 683 682 682 682 682 682 682 682 681 681 681 681 680 680 680
737 736 735 735 734 733 733 732 731 731 730 730 729 729 729 728 728 727 727 726 725 724 723 723 722 720 719 718 717 715 714 713 713 713 713 713 713 712 710 708 706 706 707 705 703 701 699 698 696 694 692 691 690 689 687 686 685 684 683 683 683 683 682 682 682 682 681 681 681 680 681 681 680 680 680 680 680 680 679 679 679 679 679 678 678 677
735 734 733 733 732 732 731 730 729 729 728 728 727 727 726 726 725 725 724 723 723 722 721 720 718 717 716 715 714 713 712 711 710 710 710 710 709 709 708 706 704 703 703 703 701 699 697 695 693 691 690 688 686 685 684 684 683 682 681 681 680 680 680 680 679 679 679 679 679 679 678 678 678 678 678 678 678 678 677 677 677 677 676 676 675 674
733 732 731 730 730 729 728 728 727 727 726 725 725 724 724 723 723 722 721 720 720 719 718 717 715 713 712 711 710 709 708 707 707 706 706 706 706 705 705 704 702 701 700 699 698 696 694 692 689 688 687 686 684 682 681 681 681 680 680 679 678 677 677 678 677 677 677 677 677 677 677 676 677 676 676 676 676 675 675 675 674 674 674 674 673 672
731 729 728 728 728 727 726 726 725 724 724 723 722 722 721 721 720 718 718 717 717 716 714 713 712 710 708 708 707 705 704 703 703 703 702 702 702 701 701 701 700 698 697 696 694 693 691 689 687 685 684 683 683 681 679 678 678 678 678 677 676 675 675 675 675 675 675 674 675 675 675 675 674 674 674 674 673 673 673 673 673 672 672 672 671 670
728 727 726 726 725 724 724 723 723 722 721 721 720 719 718 718 717 716 715 714 714 713 711 710 708 707 705 703 702 702 701 700 699 698 698 698 698 698 698 697 697 696 695 693 691 690 689 688 686 684 683 682 681 679 677 676 676 677 677 675 674 673 673 673 673 673 673 672 673 673 673 673 672 672 672 672 671 671 671 671 671 670 670 669 668 668
726 725 724 723 723 722 721 721 720 719 719 718 717 716 716 716 715 714 713 713 711 710 708 707 706 704 702 700 699 698 697 696 696 695 695 695 695 695 695 694 693 693 692 691 689 687 686 685 684 683 681 680 679 678 675 674 674 674 674 673 673 673 672 670 670 671 671 670 671 671 671 671 670 670 670 670 669 669 669 669 669 668 668 667 667 666
723 722 722 721 720 720 719 718 718 717 716 716 715 714 714 713 713 712 711 710 708 707 705 704 704 703 701 699 697 696 695 694 694 694 693 693 693 693 692 691 690 689 689 688 686 684 683 682 681 679 679 678 677 675 673 673 672 672 671 671 672 671 670 669 669 669 669 669 669 669 669 669 669 668 668 668 668 667 667 667 666 666 666 665 665 664
721 720 719 718 718 717 717 716 715 715 714 713 712 712 711 711 710 710 708 707 706 705 704 703 703 702 699 698 696 695 694 692 692 692 692 691 690 690 689 688 687 686 685 684 683 682 681 679 677 677 676 676 674 673 672 671 670 669 669 669 669 669 668 668 668 668 668 667 667 667 667 667 667 667 666 666 665 665 665 665 664 664 663 663 663 663
718 717 716 716 715 714 714 713 713 712 711 710 710 709 708 708 708 707 706 705 704 703 702 702 701 700 697 695 694 693 692 690 688 688 688 687 687 686 686 685 684 683 682 681 680 679 678 677 675 674 673 673 672 670 669 669 668 667 667 667 667 667 666 666 666 666 666 665 665 665 666 666 666 665 664 664 663 663 663 663 663 662 662 661 661 661
716 715 714 713 712 712 711 710 710 709 708 707 706 706 706 705 705 704 703 702 701 700 699 698 698 697 695 693 692 691 690 688 686 685 685 684 683 682 682 681 680 680 679 678 677 676 675 674 673 672 671 670 669 668 667 667 667 666 665 665 665 665 664 664 664 664 664 664 663 664 664 664 664 663 663 662 662 661 661 661 660 660 660 659 659 659
713 712 711 710 709 709 708 708 707 706 705 704 703 703 703 702 702 701 700 699 698 698 697 696 695 694 692 691 690 689 688 686 684 683 682 681 680 679 678 678 677 676 676 675 674 673 672 671 670 670 669 668 667 666 665 665 665 664 663 663 663 663 663 662 662 662 662 662 662 663 663 663 662 662 661 661 660 660 659 659 658 658 658 658 657 657
711 710 709 708 707 706 705 705 704 703 702 701 700 700 699 699 699 698 698 697 696 695 694 693 692 690 689 688 687 686 685 683 682 680 679 678 677 677 676 675 674 673 672 671 670 669 668 668 667 667 667 667 666 664 663 663 663 663 662 662 662 661 661 660 660 660 661 661 661 661 661 661 661 661 660 660 659 658 658 657 657 656 656 656 655 655
708 708 707 706 705 704 703 703 702 701 700 699 698 697 696 696 696 696 695 694 693 693 692 691 689 688 686 685 684 683 682 680 679 677 676 676 675 675 674 673 673 671 670 669 668 667 666 665 664 663 663 663 663 663 662 662 661 661 661 660 660 659 659 659 659 659 659 659 659 659 659 659 659 659 659 659 658 657 656 655 655 654 654 654 653 653
706 706 705 704 703 702 701 701 700 699 698 698 697 696 695 694 693 693 693 692 692 690 689 688 688 686 684 683 682 681 680 678 677 676 675 674 674 673 672 671 671 670 668 667 666 666 665 664 662 660 659 659 659 660 660 660 660 659 659 658 658 658 658 658 658 658 658 658 658 658 658 658 658 658 658 658 657 656 654 653 653 652 652 652 652 651
Wind_Speed
7 9 10 11 12 12 12 13 14 15 17 17 18 18 19 18 18 18 18 18 18 18 18 18 18 18 17 17 17 16 16 16 16 17 17 17 18 18 19 20 20 21 22 23 23 24 24 24 24 24 24 24 24 24 24 24 24 24 24 23 23 23 23 23 23 23 23 23 24 24 24 25 25 25 25 26 25 25 24 24 24 24 24 24 24 24
8 9 9 10 11 11 11 12 13 14 16 18 20 20 20 20 19 18 18 18 18 18 19 19 19 19 19 19 19 18 18 18 18 18 18 18 18 19 19 20 20 21 22 23 24 24 25 25 24 24 24 24 24 24 24 25 25 25 25 25 24 24 24 24 24 24 24 24 25 25 25 26 26 27 27 27 27 27 26 26 26 26 26 26 25 25
8 8 9 9 10 11 11 11 12 14 16 18 20 21 21 21 20 19 19 18 18 18 19 19 20 20 20 20 20 20 20 20 20 20 20 20 20 20 20 20 21 22 23 24 24 25 25 25 25 24 24 24 24 25 25 25 25 25 26 25 25 25 24 24 24 25 25 26 26 26 26 26 27 27 27 28 28 28 27 27 27 27 27 27 26 26
7 8 9 10 10 10 10 11 13 15 18 19 20 21 21 21 21 20 19 19 19 18 18 18 19 20 20 20 21 21 21 22 22 22 22 22 21 21 21 21 22 23 23 24 25 25 26 25 25 25 24 25 25 25 26 26 26 26 26 26 25 25 25 25 25 25 26 26 26 27 27 27 27 26 26 26 26 26 27 27 26 26 26 26 26 26
8 8 10 11 10 10 11 13 16 18 20 20 20 20 20 20 21 20 20 19 19 19 18 18 18 19 19 20 20 21 21 22 22 22 23 23 23 22 23 23 23 24 25 25 26 26 26 26 25 25 25 25 25 26 26 27 27 27 27 26 25 25 24 24 25 25 26 26 26 26 26 26 27 27 26 26 25 25 25 25 25 25 25 24 24 25
9 9 10 11 11 12 14 16 18 19 20 20 20 20 21 21 21 22 22 21 21 20 19 18 18 18 18 19 19 20 21 21 22 22 23 23 23 24 24 24 25 26 26 27 27 27 26 26 25 25 25 25 25 25 26 26 27 27 27 27 26 25 24 24 24 25 25 25 25 25 25 26 26 27 26 25 25 25 25 25 25 24 24 23 23 24
10 11 12 13 13 14 15 17 18 18 18 18 20 21 21 22 22 23 23 22 22 22 21 20 19 18 18 18 18 19 20 21 21 22 23 24 24 25 25 26 27 27 28 28 28 27 26 25 24 24 24 24 24 25 25 26 26 26 26 26 26 25 25 24 24 24 25 25 25 25 25 25 26 26 25 25 25 25 25 24 24 24 24 24 23 23
12 13 13 13 14 15 16 16 17 16 16 17 18 20 22 22 22 23 23 23 22 22 22 22 21 21 20 19 19 20 20 21 22 22 23 24 25 26 27 28 29 29 29 28 27 26 25 24 23 23 23 23 23 24 24 25 25 25 25 25 25 24 24 24 24 24 24 25 25 25 25 26 26 25 25 25 25 25 25 25 24 24 24 24 24 24
12 13 13 12 12 13 15 16 16 15 15 16 17 18 20 21 22 22 22 21 21 21 21 21 22 23 22 22 22 22 22 22 23 23 24 25 26 27 28 29 30 30 29 27 26 24 23 22 22 22 22 22 22 23 23 23 23 23 23 22 23 23 23 23 23 24 24 24 24 25 25 26 26 26 26 26 26 26 25 25 25 25 25 25 25 25
12 12 12 12 12 12 13 14 15 16 15 16 16 17 18 19 20 20 20 19 19 19 19 20 21 22 23 24 24 24 24 24 24 24 25 26 27 27 28 29 29 28 27 26 24 22 21 21 21 20 21 21 21 21 21 21 21 21 21 21 22 22 22 23 23 23 24 24 24 25 25 26 26 26 27 27 27 27 27 26 26 26 25 26 26 26
11 11 11 12 12 11 11 12 13 15 15 16 16 17 17 16 16 17 18 18 19 19 20 20 20 21 23 24 24 25 25 26 26 26 26 26 26 26 27 27 26 26 25 24 23 23 22 22 22 21 21 21 21 21 21 21 21 21 22 22 23 24 24 24 24 24 24 24 25 25 25 25 26 26 26 27 27 27 27 27 27 27 26 26 26 26
10 10 10 10 10 11 11 12 12 13 14 14 14 14 14 14 14 14 15 17 19 20 21 22 23 23 24 24 25 25 26 26 27 27 26 26 25 25 24 24 24 23 23 24 25 25 26 26 26 25 24 24 24 24 24 24 24 25 25 26 26 26 26 26 26 26 26 26 26 26 26 26 26 26 26 27 27 27 27 28 28 28 28 27 27 27
10 10 10 10 10 10 11 11 12 12 12 12 12 12 13 14 15 15 16 18 19 21 22 23 24 25 25 25 25 25 25 26 26 26 25 25 24 23 23 23 23 23 24 26 27 29 29 30 30 29 29 28 28 28 28 29 29 30 30 30 30 29 28 28 27 27 27 27 27 27 27 27 27 27 27 27 27 27 28 28 28 28 28 28 28 27
10 9 9 9 10 10 11 12 12 12 12 12 12 13 15 16 17 18 19 19 20 21 22 24 24 24 24 24 23 23 22 23 23 24 24 24 23 22 22 23 24 24 26 28 30 31 31 32 32 32 32 32 31 31 31 31 32 32 32 32 31 30 29 28 27 27 27 27 27 27 27 27 27 27 28 28 28 28 28 28 29 29 29 29 28 28
9 9 9 9 10 11 11 12 12 13 13 14 15 16 17 18 19 19 19 18 19 20 21 22 22 21 20 19 19 18 18 19 20 22 23 23 23 22 22 23 25 26 27 29 32 33 33 33 34 34 34 34 34 34 33 33 32 32 31 31 30 29 28 27 26 26 26 26 26 27 27 27 28 28 28 28 28 28 28 28 29 29 29 29 29 28
9 9 9 10 10 11 12 12 13 14 15 16 17 17 18 18 18 18 17 18 18 18 17 17 18 18 18 16 15 14 15 18 20 21 22 23 23 22 21 22 25 26 27 29 32 34 34 35 35 36 36 36 36 36 36 35 34 32 31 30 29 28 27 26 26 26 26 27 27 27 27 28 28 28 28 28 28 29 29 29 29 29 29 29 29 29
10 10 10 11 12 13 14 14 14 14 15 16 17 17 17 17 17 17 17 17 16 15 14 14 12 12 13 17 16 14 14 17 19 20 21 23 23 22 20 21 24 26 28 29 31 33 35 36 36 37 38 38 38 38 37 36 35 34 33 31 30 29 28 27 27 27 27 28 28 28 28 28 28 28 28 29 29 29 29 29 29 29 30 30 30 29
10 11 11 12 13 14 14 14 14 14 15 15 16 17 17 16 16 16 16 15 14 14 14 14 13 11 11 15 17 16 16 19 21 23 23 24 25 24 23 24 26 29 30 31 32 33 34 35 36 37 38 39 39 39 38 37 36 35 34 33 32 31 30 29 29 29 29 29 29 29 29 29 29 29 29 29 29 29 29 29 30 30 30 30 30 30
12 12 12 13 14 14 14 14 14 14 14 14 14 14 15 15 15 15 15 14 14 14 15 15 16 16 17 19 20 20 19 20 23 24 22 24 27 28 27 26 28 31 32 32 33 33 33 34 36 37 39 40 40 40 39 38 37 36 35 34 33 32 31 31 30 30 30 30 30 30 30 30 30 30 30 30 30 30 30 30 30 30 30 30 30 30
14 14 14 14 14 15 15 14 14 14 13 14 14 15 16 17 17 17 16 15 16 16 17 17 18 19 19 20 22 22 20 21 24 24 22 24 27 28 26 26 27 29 31 32 32 31 31 33 35 37 39 40 41 41 40 39 38 36 35 34 33 32 32 31 31 31 31 31 31 31 31 31 31 31 30 30 30 30 30 30 30 30 30 30 29 29
16 16 16 15 14 14 14 14 14 14 14 15 16 17 18 18 18 18 17 17 17 18 18 19 20 20 20 23 24 23 23 24 25 25 24 26 28 28 26 25 27 29 30 31 31 30 31 33 35 37 40 41 41 41 40 39 37 36 35 34 33 32 32 31 31 31 31 31 31 32 32 32 32 31 31 31 31 31 31 30 30 30 30 29 29 29
17 18 18 17 16 16 16 17 18 18 18 18 19 19 18 18 18 19 19 19 19 20 21 22 23 25 26 27 28 28 27 27 28 28 26 25 28 29 26 24 25 27 28 29 30 31 32 33 35 38 40 41 41 40 39 38 37 36 35 34 33 32 32 32 32 32 32 32 32 32 32 32 32 32 31 31 31 31 31 30 30 30 30 29 29 29
19 20 20 20 20 20 21 21 21 21 20 20 20 20 19 19 20 21 21 21 21 22 23 25 28 30 31 31 31 30 29 28 30 29 25 21 23 26 24 22 24 25 25 27 29 31 33 35 36 39 40 41 40 39 38 38 37 36 35 34 33 32 32 32 32 32 32 32 32 32 32 32 32 31 31 31 30 30 30 30 30 30 29 29 29 29
19 20 21 21 21 21 21 22 21 20 19 19 20 20 20 21 23 23 23 23 24 24 25 27 28 28 27 26 25 25 25 25 26 27 25 20 21 23 23 22 23 25 26 28 29 31 33 35 37 38 39 40 40 39 38 38 37 36 35 34 33 33 32 32 32 32 32 32 32 32 32 32 31 31 30 30 29 29 29 29 29 29 29 29 29 29
19 20 20 20 20 20 21 20 20 19 19 19 20 21 21 22 23 24 24 24 24 24 25 25 23 22 20 19 20 21 22 21 21 22 22 18 19 23 24 22 22 23 26 27 27 28 31 34 36 37 38 39 39 38 38 37 37 36 35 34 33 33 33 33 33 32 32 32 32 32 32 31 31 30 30 29 28 28 28 28 28 28 28 28 28 29
20 20 21 21 21 21 21 21 20 20 20 20 20 21 22 23 23 23 23 21 20 20 21 21 20 20 22 23 24 24 23 21 20 19 19 18 20 24 26 23 22 24 25 26 26 27 30 32 34 35 36 37 37 37 37 37 37 36 36 35 34 33 32 32 32 32 32 32 32 31 31 30 30 29 29 28 28 27 27 27 27 27 27 27 28 28
20 20 21 21 21 21 21 21 21 21 21 22 22 22 22 23 24 23 21 19 18 19 20 18 16 17 21 22 23 23 22 21 20 20 19 19 21 24 26 24 24 25 26 27 27 27 29 31 32 33 35 36 36 37 37 37 37 36 35 33 32 31 31 31 31 31 31 31 31 30 29 29 28 28 28 28 27 27 26 26 26 26 26 26 27 27
20 20 21 21 21 22 22 22 22 22 22 22 22 22 22 23 23 23 22 21 21 20 20 17 14 13 16 18 21 23 23 22 21 21 21 20 20 21 24 25 26 27 26 26 27 27 28 28 29 31 34 36 37 37 36 35 34 33 32 30 28 28 28 28 29 29 30 29 29 28 27 27 26 27 27 27 27 26 26 26 25 25 25 25 25 26
20 20 21 21 21 21 21 22 22 22 22 22 22 22 21 22 22 23 23 23 22 21 20 19 18 17 18 20 22 23 23 22 21 21 22 20 19 19 21 22 24 24 23 22 22 22 24 25 28 31 34 36 35 33 31 29 28 28 28 27 26 25 25 25 26 26 27 27 26 26 25 25 26 26 27 27 27 26 26 25 24 24 24 24 25 26
20 21 21 20 20 20 20 21 22 22 22 22 22 22 21 22 23 25 25 24 22 22 22 22 21 21 21 20 19 18 19 20 19 18 19 17 16 16 18 19 22 22 19 15 11 11 16 21 24 27 29 30 28 26 23 23 25 26 27 27 26 25 24 24 24 24 24 25 25 25 26 26 27 27 27 27 26 26 25 24 23 22 22 23 24 26
19 19 19 19 19 19 20 21 21 22 22 23 22 22 22 23 24 25 25 24 23 23 23 23 23 22 20 16 10 8 10 19 20 18 18 17 16 17 17 18 21 23 20 13 5 3 8 13 17 18 20 21 21 20 19 21 24 27 29 29 29 29 28 26 25 25 25 26 26 27 27 27 27 27 27 26 26 24 23 22 21 20 21 22 23 25
18 18 19 19 20 20 21 21 22 22 23 24 24 24 24 25 25 26 26 25 25 24 24 24 23 22 21 19 13 10 14 21 23 21 21 20 21 22 22 21 22 23 21 18 13 8 7 6 10 15 16 18 20 22 23 24 26 28 30 31 32 33 32 30 29 28 28 28 28 28 28 27 26 26 26 25 24 23 22 21 20 19 19 21 22 24
20 21 21 21 22 22 23 23 23 24 25 25 26 26 26 26 26 26 26 25 25 24 24 24 23 22 22 23 22 22 25 26 25 24 23 23 23 23 23 21 21 20 18 18 18 17 13 11 14 18 20 22 25 27 27 27 28 29 31 32 34 35 34 33 31 31 30 29 29 28 27 26 26 25 25 25 24 23 22 21 20 19 19 20 21 23
23 23 23 23 24 24 24 24 25 25 25 25 25 25 26 26 26 26 25 25 25 25 25 25 24 23 23 23 24 25 27 27 26 24 24 25 23 21 21 19 18 18 18 19 21 22 21 21 20 19 20 23 25 26 26 27 28 29 30 31 32 33 33 32 31 30 29 29 27 26 25 25 25 25 25 25 24 23 23 22 21 20 19 20 20 21
24 24 24 23 23 24 24 24 24 24 24 24 24 24 24 24 24 24 24 25 25 26 26 26 26 26 26 24 24 25 27 28 26 24 24 26 25 22 20 19 18 19 21 24 25 24 22 22 22 20 18 21 23 24 24 24 25 27 28 28 29 30 31 30 29 28 28 27 27 26 25 24 24 25 25 25 25 25 24 23 22 21 21 20 20 20
23 23 23 23 23 23 23 23 23 23 23 23 22 22 22 23 23 23 23 23 24 25 26 27 27 28 28 27 27 28 29 29 27 25 25 25 25 23 20 19 20 20 21 24 24 22 18 18 19 20 19 18 19 21 23 23 24 26 27 27 28 28 29 28 27 26 26 27 27 26 25 24 24 25 25 25 25 25 24 24 23 22 22 21 21 20
22 22 22 22 22 22 22 22 22 22 22 22 21 21 21 21 22 22 23 23 24 25 26 27 27 28 29 29 30 30 31 30 29 28 27 27 27 26 25 25 24 21 18 21 21 19 16 14 16 19 19 18 18 20 23 24 24 25 26 27 27 27 28 27 26 26 26 27 27 26 25 24 24 25 25 25 24 25 25 25 24 24 23 23 23 22
20 21 21 21 21 21 21 21 21 21 21 21 21 20 20 21 22 22 23 24 25 26 27 28 28 29 30 31 32 33 34 34 34 34 32 32 31 29 29 29 28 26 25 24 23 21 18 15 13 13 15 19 23 25 27 26 24 23 24 25 26 26 27 26 26 26 26 27 27 26 25 25 24 25 25 25 25 25 25 26 26 25 25 25 25 25
20 21 21 21 21 21 21 21 21 21 20 21 21 21 21 22 23 24 24 25 26 27 28 29 31 32 33 34 35 36 37 38 38 38 36 36 34 32 31 30 29 28 28 28 27 27 25 22 18 14 12 16 22 26 27 25 24 22 22 23 24 26 26 26 26 26 26 26 26 26 26 25 25 25 26 26 26 26 26 27 26 26 25 25 25 25
21 21 21 21 21 21 21 21 21 21 21 21 22 22 22 23 23 24 24 25 25 26 27 29 31 33 34 35 36 36 37 37 37 37 37 37 36 34 32 30 29 29 29 29 29 28 28 26 24 23 22 20 21 22 23 23 22 21 21 20 20 22 24 24 25 26 26 26 26 26 26 25 25 25 26 27 27 27 27 26 26 25 24 23 23 23
20 20 20 20 20 20 20 20 20 21 22 22 23 22 22 22 22 22 22 21 22 24 25 27 29 30 30 31 32 33 34 36 36 36 36 36 36 36 35 32 31 29 28 28 28 28 27 24 23 22 22 22 23 23 22 22 22 22 21 20 20 21 22 23 23 24 24 25 25 25 25 25 25 26 26 27 27 27 26 25 24 24 23 22 22 22
19 20 20 19 19 20 20 21 21 22 22 21 21 21 20 19 18 18 18 19 21 23 25 25 25 25 26 27 28 30 31 33 34 35 35 36 36 35 35 33 32 30 29 28 27 26 25 24 23 23 22 22 21 21 21 23 23 23 23 22 22 21 20 20 21 21 22 23 23 23 23 24 25 26 26 26 26 25 24 23 23 22 22 22 22 22
20 21 21 21 21 22 22 22 21 20 19 19 19 18 17 17 18 19 19 20 22 23 24 23 22 22 22 23 24 24 25 27 29 30 30 31 31 31 31 32 32 31 30 28 26 25 25 25 25 25 26 24 23 21 21 22 23 24 24 24 22 18 13 14 16 18 19 20 21 21 22 23 24 24 24 24 24 23 23 22 22 22 22 22 23 23
22 22 23 23 22 22 21 20 19 18 18 18 18 18 17 18 19 20 20 21 22 22 21 19 18 18 18 18 19 20 21 22 23 23 25 26 26 27 28 30 31 31 31 29 26 25 25 24 24 25 25 25 24 23 22 23 23 24 24 23 22 19 16 15 15 16 18 19 19 20 20 21 22 22 22 22 23 23 23 23 23 23 23 24 24 25
23 23 22 22 21 20 20 19 19 19 19 19 19 19 19 19 20 20 20 20 20 19 17 17 18 20 21 22 22 23 24 24 24 24 24 25 26 27 28 30 31 31 31 31 29 27 24 24 24 25 26 25 24 23 22 22 23 23 23 22 21 21 22 21 19 18 18 19 19 20 20 20 20 20 21 22 22 23 23 23 24 24 25 25 25 26
22 21 21 21 20 20 20 20 20 20 20 20 21 21 21 20 20 20 20 20 20 21 23 23 22 20 20 21 21 22 22 23 23 23 23 24 26 27 28 29 30 30 30 30 30 30 29 28 28 27 26 24 23 23 23 23 22 22 22 22 21 20 21 21 21 21 21 21 21 20 20 19 19 19 20 20 21 22 23 23 23 24 25 25 26 26
21 21 21 21 21 21 21 21 21 21 21 21 21 21 21 21 21 20 20 20 21 21 21 21 20 19 20 21 21 20 20 22 23 24 24 25 26 27 28 28 28 28 29 29 30 31 32 32 31 29 26 22 21 21 23 23 22 21 20 20 20 19 19 20 21 22 22 22 21 21 20 19 19 19 19 19 19 20 21 22 22 23 24 24 24 24
21 21 22 22 22 22 22 22 22 22 22 22 22 22 22 22 21 21 21 20 20 20 20 20 20 20 20 21 21 21 22 23 24 25 25 25 25 25 25 24 25 26 28 29 30 31 32 32 32 31 28 24 20 20 22 22 22 20 20 19 19 18 19 20 21 22 22 21 21 20 20 19 18 18 18 17 17 17 18 19 20 21 22 22 22 21
22 22 22 22 22 22 23 23 22 22 23 23 23 24 23 22 21 21 20 20 20 20 20 20 21 21 20 21 22 23 24 25 25 25 23 22 21 20 20 21 23 24 25 26 27 28 29 30 31 32 31 28 25 23 23 23 22 21 20 19 18 18 19 19 20 20 20 19 19 19 19 19 19 19 18 16 16 17 18 19 19 20 20 20 19 19
22 22 22 22 22 22 22 23 23 22 22 22 22 23 23 23 22 21 21 21 21 21 22 22 21 20 21 22 24 24 23 23 21 20 20 21 21 21 21 21 21 20 19 19 19 19 20 21 23 27 29 30 28 25 23 23 23 23 21 20 19 18 18 18 18 18 18 17 17 18 18 18 18 18 17 16 16 17 18 19 19 19 19 18 17 17
22 22 22 21 21 21 22 22 22 22 22 21 22 22 23 23 23 22 22 22 21 21 21 21 20 20 21 22 23 23 21 20 20 21 23 25 25 24 23 21 20 17 14 12 11 10 10 10 12 16 21 23 24 24 24 23 22 21 19 19 18 17 17 17 17 17 16 16 16 16 16 16 17 17 17 16 15 15 16 17 17 17 17 16 16 16
Wind_Direction
306 310 315 318 321 324 325 328 329 330 329 329 330 330 329 328 328 327 327 327 326 325 324 322 321 319 317 316 315 313 312 311 310 309 308 307 307 307 307 308 308 309 310 311 312 312 311 310 308 306 303 300 297 295 293 292 290 289 288 287 287 286 285 285 283 281 281 279 279 278 277 276 275 275 274 273 274 275 275 274 272 270 269 269 269 269
305 311 316 318 321 323 324 326 327 327 326 325 326 326 326 326 325 324 324 324 324 323 322 321 320 318 317 316 316 315 315 314 312 311 310 309 309 308 308 309 309 309 310 310 311 311 310 309 307 305 302 299 297 295 293 292 291 290 289 287 286 284 284 283 282 280 278 276 274 274 273 273 274 274 273 270 269 270 271 273 273 272 270 269 268 268
311 317 320 321 322 323 323 324 323 322 322 322 322 323 324 323 323 322 322 322 321 320 319 319 318 317 316 316 316 316 316 316 315 314 314 313 313 312 312 311 310 309 309 309 310 309 309 307 306 304 301 299 296 294 293 291 290 289 288 287 286 284 282 281 280 279 277 275 272 271 272 273 274 275 275 271 268 266 268 270 271 271 270 270 269 268
320 323 325 324 324 323 322 321 319 318 319 319 320 322 322 323 322 322 321 320 318 317 316 315 315 314 313 313 314 315 316 316 316 316 315 315 315 314 313 312 311 310 309 309 309 308 307 306 304 302 299 297 295 293 292 291 290 288 287 286 285 284 282 281 280 279 277 276 274 273 273 274 275 277 277 274 271 268 269 270 271 271 270 270 269 267
323 326 326 326 324 321 318 317 317 318 319 321 322 323 324 324 323 321 320 320 318 317 315 314 313 312 312 312 312 313 314 315 315 315 315 315 314 314 313 312 310 310 309 309 308 307 305 303 301 299 297 295 293 291 290 290 289 288 287 285 284 282 281 281 280 279 278 277 276 275 274 274 275 276 276 274 272 270 270 270 270 270 270 269 268 267
321 324 325 324 321 317 315 316 318 321 323 324 325 325 325 324 323 322 322 321 321 319 318 316 314 312 311 310 310 311 312 312 313 313 313 313 313 312 311 311 310 310 309 308 307 306 304 302 299 296 294 292 290 289 288 288 287 287 286 285 283 281 280 279 279 278 278 278 277 276 275 275 275 275 274 273 271 270 270 269 270 270 270 269 268 267
318 320 322 322 319 317 316 318 321 324 326 326 326 325 324 323 322 322 321 322 321 321 319 318 315 313 311 311 310 310 310 310 310 310 310 310 310 310 310 310 309 309 308 308 308 306 305 302 299 295 292 289 288 287 286 286 286 286 286 286 285 283 281 280 279 278 277 278 277 276 276 276 276 276 275 274 272 271 270 270 270 269 269 269 268 268
315 316 319 320 320 319 318 319 321 324 325 325 324 323 322 321 320 319 319 320 320 320 320 319 317 316 315 314 313 311 310 309 308 307 307 307 307 308 308 308 308 308 308 308 308 308 306 303 300 296 292 288 286 285 285 285 286 286 287 288 288 287 286 284 282 280 278 278 277 276 276 276 276 276 275 274 273 272 271 270 269 269 269 269 269 268
310 312 314 315 316 316 316 316 318 320 321 320 319 318 317 317 316 317 317 317 318 318 318 317 316 316 315 316 315 313 311 309 308 307 306 306 306 306 306 306 306 306 307 307 308 308 307 304 301 297 292 288 286 284 284 285 286 288 289 290 291 291 290 289 287 285 282 280 278 277 276 276 276 275 275 274 273 272 271 270 269 269 269 269 269 268
307 306 307 307 308 309 308 307 310 313 314 313 312 311 310 311 312 314 315 315 315 316 315 313 311 311 312 313 313 312 311 308 307 305 304 304 303 303 303 303 303 303 304 305 306 306 306 305 302 299 294 290 287 285 285 286 287 289 291 292 293 293 292 291 290 288 286 284 282 280 279 278 277 276 275 274 273 272 270 270 269 268 268 268 268 268
303 302 301 302 303 303 300 299 302 306 308 308 308 307 307 307 309 311 311 311 312 312 310 308 306 305 306 307 308 308 307 305 304 304 303 302 301 300 300 300 300 300 301 302 303 303 304 304 302 299 295 291 288 286 285 286 287 288 290 291 292 292 291 291 289 288 287 285 284 283 282 281 280 278 277 275 273 272 270 269 268 267 267 267 266 266
295 297 297 297 298 299 297 297 298 301 303 305 306 306 306 306 306 305 303 303 305 306 305 304 302 301 301 302 303 303 303 301 301 301 301 301 300 300 300 299 299 299 300 300 301 301 302 302 300 298 294 291 287 285 284 284 285 286 287 288 289 289 289 288 287 286 285 284 283 283 282 282 281 280 279 277 274 272 270 269 267 267 266 265 265 265
287 289 290 291 292 293 293 295 297 298 298 298 297 296 298 301 301 299 295 294 296 299 300 300 300 299 300 300 300 300 300 299 299 298 298 298 299 301 301 300 299 299 300 301 301 301 302 302 300 298 295 292 289 287 285 284 285 285 286 287 287 287 286 286 285 284 283 283 282 282 281 281 281 280 279 278 275 272 270 268 267 266 265 264 264 264
282 283 283 284 285 287 289 290 291 292 291 290 289 290 293 296 296 295 293 291 292 296 298 297 296 297 298 299 299 298 298 297 296 295 294 294 296 298 300 299 298 298 300 301 301 302 303 303 301 299 298 297 295 293 291 290 289 288 288 288 287 286 284 283 282 282 282 281 281 281 281 280 280 279 278 277 276 273 271 269 266 265 264 264 263 263
278 280 279 278 279 283 285 288 288 288 289 290 290 292 294 294 294 293 291 291 294 298 299 297 297 296 296 297 299 300 298 295 291 289 289 289 291 293 295 295 294 295 297 299 300 301 303 303 301 299 299 299 299 299 299 298 296 295 293 292 289 287 284 282 281 280 280 280 281 281 281 280 279 279 278 277 275 274 271 269 267 265 264 263 263 263
278 278 276 277 279 281 283 286 287 289 290 292 293 293 293 291 291 290 289 291 295 299 299 300 301 301 300 300 302 304 302 297 291 287 287 287 288 288 289 289 289 290 293 295 297 299 301 300 299 298 299 299 300 301 302 301 300 299 298 296 293 290 286 283 281 281 281 281 282 282 282 281 280 279 278 277 275 274 272 270 268 266 264 263 262 262
277 277 277 278 280 281 282 284 286 287 290 292 293 293 292 290 289 288 287 290 295 298 297 297 300 303 305 305 305 306 307 302 296 292 290 288 287 286 286 285 285 287 289 290 292 294 296 296 296 296 297 298 300 301 301 300 300 299 298 297 295 293 289 286 284 283 283 283 283 284 283 283 282 281 279 278 276 274 273 271 269 267 265 263 262 262
273 273 275 276 277 279 282 284 285 286 288 290 292 294 294 294 294 293 291 291 293 294 294 293 292 293 298 300 301 303 306 303 299 296 292 289 287 287 287 286 285 286 286 285 286 288 291 292 292 293 294 296 298 299 298 298 297 297 297 296 295 293 291 289 287 286 285 285 285 285 284 284 283 282 280 279 277 275 274 272 270 268 266 264 263 263
273 272 272 272 275 277 279 280 281 283 284 287 291 295 299 302 303 302 298 294 291 289 290 290 289 288 289 290 293 297 299 298 296 295 292 289 288 288 288 287 286 285 284 282 283 285 287 288 289 291 292 294 296 297 297 296 295 295 294 294 293 292 291 289 288 286 286 285 285 285 284 284 283 282 281 279 278 276 274 273 271 269 267 265 264 263
275 273 271 271 275 277 278 277 277 278 280 283 287 293 298 302 302 301 297 293 290 288 287 287 287 286 286 287 289 292 295 295 294 292 290 288 287 287 287 286 285 283 281 280 281 283 283 284 286 288 291 294 296 296 296 295 294 294 293 292 291 290 289 287 286 285 284 284 283 283 283 282 282 281 280 279 277 276 274 272 271 269 267 265 264 263
276 274 272 272 273 275 276 277 278 278 280 283 286 290 293 296 295 294 292 291 289 288 288 286 284 284 285 286 287 289 291 291 290 289 289 287 285 284 285 284 282 281 279 279 280 281 279 280 282 286 290 293 295 295 295 294 293 293 292 291 290 288 287 286 285 283 283 282 281 281 280 280 279 278 278 276 275 274 273 271 270 268 267 265 263 262
275 274 276 275 272 271 273 276 278 279 280 282 284 286 288 289 289 288 287 286 285 285 284 283 283 283 283 282 282 283 284 284 282 282 284 284 282 281 282 281 280 278 276 278 279 279 277 277 280 284 288 292 293 294 293 293 292 291 290 290 288 287 286 284 283 282 281 281 280 279 278 278 276 275 274 273 272 272 270 269 268 267 265 264 262 261
276 277 278 278 277 275 276 277 279 281 282 283 282 282 282 282 281 281 280 279 279 279 280 281 282 281 279 277 277 279 279 280 278 276 275 275 276 279 281 280 279 276 273 275 276 277 276 277 279 283 287 291 292 292 292 292 291 291 290 289 288 287 285 283 282 281 280 279 279 278 277 275 274 273 272 271 270 269 268 267 266 265 263 262 261 260
281 281 282 281 281 280 280 280 281 282 283 283 283 282 281 279 277 276 275 277 278 278 280 281 281 279 277 277 277 279 280 281 277 270 264 267 273 277 281 282 280 278 275 274 274 275 276 277 280 284 288 290 291 292 291 291 291 290 290 289 288 286 285 283 282 280 279 279 278 277 276 275 273 272 270 269 267 266 266 265 264 263 262 261 261 260
285 284 283 283 283 283 281 280 280 279 280 280 280 280 281 281 282 282 282 280 279 279 280 280 279 279 281 284 285 287 288 286 279 268 258 266 276 279 281 282 280 278 276 275 274 274 275 277 280 284 287 289 291 291 291 291 291 290 290 289 288 286 285 283 281 280 279 278 278 277 275 274 273 271 269 267 266 265 264 263 262 262 261 261 261 261
283 283 283 283 283 282 281 280 278 277 277 277 279 281 284 286 286 285 281 279 278 279 280 281 281 282 284 286 286 287 289 289 285 275 263 271 279 281 282 282 280 277 275 275 274 273 274 275 278 281 284 288 290 292 292 291 291 291 290 289 288 286 284 282 281 279 278 277 277 275 274 273 272 271 269 267 265 264 263 262 261 261 261 261 261 261
280 279 279 279 279 279 278 277 277 277 278 278 280 282 285 286 286 283 279 277 279 280 280 281 282 283 283 282 282 282 285 286 286 282 276 273 275 279 281 282 280 277 275 275 273 271 270 271 273 276 280 284 288 290 291 291 292 291 291 290 288 286 284 281 279 278 277 275 274 273 272 271 271 270 269 267 266 264 263 262 261 261 261 262 262 261
280 279 278 277 277 276 276 276 277 278 279 280 281 282 282 283 282 280 278 278 280 280 278 277 278 281 282 281 281 282 283 282 282 282 281 273 270 273 277 280 278 275 274 275 273 269 266 265 268 272 275 280 283 286 288 290 291 292 291 290 288 285 282 279 277 275 274 272 271 270 270 271 271 271 270 269 267 265 263 262 262 262 262 262 262 261
282 281 280 279 278 278 278 277 278 279 279 280 280 280 279 278 276 275 274 276 277 276 274 274 275 277 279 281 282 282 280 279 279 280 279 270 264 267 274 276 274 272 272 275 276 273 267 265 266 269 272 274 277 280 283 288 290 291 291 290 287 284 280 277 274 272 270 269 269 270 272 273 274 274 273 271 269 266 264 263 262 262 262 262 261 261
283 282 281 280 280 280 280 279 279 279 279 279 279 278 276 273 271 271 272 273 272 271 272 273 274 274 276 280 282 282 279 278 280 282 280 272 267 270 276 275 272 271 271 275 281 281 275 272 269 268 268 268 268 270 276 283 288 290 290 290 287 283 279 275 272 270 269 269 271 274 276 277 278 277 276 274 271 269 266 264 263 262 262 261 260 260
284 282 281 281 281 281 280 280 280 279 279 278 277 275 273 271 269 268 269 268 266 266 268 270 271 271 271 275 278 280 279 281 283 285 285 280 276 278 281 278 274 272 269 265 268 303 290 284 276 269 266 265 264 265 271 278 283 285 287 287 285 283 280 277 274 272 272 273 275 277 278 278 278 278 277 275 273 270 267 264 262 261 260 260 260 259
283 283 282 282 282 281 280 280 279 278 277 276 274 273 271 269 268 267 267 265 263 263 264 266 267 268 267 267 268 270 275 280 282 284 284 282 280 279 278 274 271 271 268 261 258 268 286 292 284 278 273 274 274 275 276 275 276 279 281 282 282 281 280 279 277 275 275 276 276 277 277 277 276 276 275 274 271 269 266 263 260 259 258 259 259 260
285 284 284 284 283 282 281 280 278 276 275 274 272 271 270 269 267 266 265 264 262 260 260 262 264 265 266 267 267 268 272 275 278 280 280 278 277 277 274 266 263 267 272 269 265 264 267 272 280 282 281 281 281 280 278 275 274 275 278 279 279 280 280 279 278 277 277 277 277 276 276 275 275 274 273 271 269 267 264 262 259 258 258 259 260 261
287 287 286 286 284 283 281 279 277 275 274 273 272 271 270 269 267 265 263 262 260 258 257 259 260 262 265 268 269 269 270 272 275 277 278 275 272 270 269 262 261 269 279 280 277 272 268 267 271 277 282 282 281 278 275 273 274 276 277 278 279 279 280 279 278 277 277 276 275 274 274 274 273 273 272 270 268 266 264 262 260 259 259 260 262 264
287 286 286 285 283 282 280 278 277 275 274 273 272 271 271 270 268 266 264 262 260 258 257 256 255 256 260 263 267 270 271 273 274 276 276 274 270 268 269 266 269 276 281 280 277 273 268 265 265 269 277 282 281 276 271 270 273 276 277 276 276 277 278 277 276 275 275 273 272 271 271 272 272 272 271 270 269 267 265 263 262 261 261 262 263 265
285 284 283 283 281 280 279 277 276 275 274 274 273 273 273 272 271 269 267 265 263 261 260 259 257 257 258 258 261 266 270 273 275 275 275 274 273 274 276 276 279 280 277 273 270 266 263 264 267 271 276 280 281 278 274 272 272 274 274 273 273 273 274 274 272 271 269 268 267 267 268 270 271 270 270 269 268 267 266 264 263 263 263 263 264 264
283 282 281 281 280 279 278 277 276 276 276 276 276 276 276 275 275 274 273 272 270 269 268 267 265 264 262 262 262 264 268 272 274 274 274 274 275 276 278 280 281 280 274 270 268 266 265 269 276 280 280 278 277 277 277 275 272 270 271 272 272 272 271 270 269 266 264 263 262 263 265 267 268 268 268 267 266 266 265 265 265 266 267 267 267 266
281 281 280 280 279 279 278 278 277 277 277 277 277 278 278 278 278 278 278 277 276 275 275 274 272 270 268 267 266 267 268 270 272 273 272 272 272 273 274 276 277 276 274 271 271 273 274 277 280 281 280 275 272 271 272 272 271 270 270 272 272 271 269 268 266 262 260 259 259 260 261 263 264 265 265 265 265 265 266 266 268 269 271 272 272 271
279 280 280 280 280 279 278 277 277 278 278 279 279 280 281 281 280 280 279 278 277 276 276 275 274 272 271 270 269 268 268 269 269 269 269 269 269 268 269 271 272 272 271 270 269 270 271 271 269 269 271 271 270 268 267 266 267 269 271 272 271 269 267 266 264 260 257 255 256 257 258 259 260 261 262 263 264 265 267 269 271 273 275 277 277 276
279 280 280 280 280 279 278 278 279 280 281 281 282 282 282 281 281 279 277 276 276 276 276 275 274 272 271 270 270 268 267 267 266 266 266 265 265 264 264 266 268 270 271 269 267 265 264 264 263 262 262 264 266 267 267 266 266 268 271 273 272 269 267 265 263 259 256 254 253 254 256 257 258 258 260 262 264 266 268 271 274 276 278 278 278 277
279 279 280 281 281 281 280 281 282 283 283 283 282 282 281 279 278 278 276 277 277 278 278 277 274 271 269 268 267 266 265 265 264 262 262 262 262 262 263 263 265 268 270 270 269 267 265 264 264 264 263 262 264 266 268 268 269 271 272 271 271 270 269 266 263 260 257 254 253 253 254 255 257 258 259 262 264 267 270 273 275 277 277 276 274 273
280 281 282 284 285 285 285 285 285 284 283 282 280 279 279 278 279 280 281 283 282 281 280 275 272 270 269 267 266 264 263 263 262 261 261 260 260 261 263 264 265 267 269 269 269 268 267 268 268 268 267 266 267 268 270 271 272 272 271 269 270 271 271 266 261 258 257 254 252 251 252 254 255 257 260 262 265 268 271 273 274 274 274 273 272 271
281 282 284 285 286 286 287 287 286 285 283 281 280 279 279 281 284 287 288 287 285 282 279 275 274 274 273 271 270 269 268 267 266 266 265 265 265 266 268 269 269 268 267 267 267 267 268 267 267 267 268 268 268 269 270 272 274 273 271 269 268 268 268 263 260 258 256 255 253 251 251 253 255 258 261 263 266 268 270 271 271 272 272 271 271 271
279 281 283 285 286 287 288 287 286 284 283 281 281 282 283 284 285 286 286 286 285 283 282 285 289 291 289 288 288 288 286 282 280 279 278 277 276 275 274 273 272 270 267 263 263 264 266 265 264 264 266 267 268 268 269 271 273 273 271 269 266 262 259 261 262 261 258 255 253 252 251 253 256 259 261 263 265 267 268 269 270 271 271 271 270 270
279 281 282 284 286 286 286 285 285 285 284 283 283 284 285 285 285 284 282 284 285 287 292 300 304 302 297 296 296 295 292 289 287 285 283 281 278 277 276 275 273 271 267 263 261 261 263 265 267 268 269 268 267 266 268 269 271 271 270 268 265 261 258 260 261 259 257 255 254 253 254 255 257 258 260 262 264 266 267 268 269 270 271 271 271 271
280 282 282 284 284 284 285 285 286 286 285 284 284 284 286 286 285 283 281 282 284 286 289 292 292 291 289 289 290 290 289 288 287 285 283 281 280 278 277 276 274 270 266 263 261 261 261 263 267 270 270 269 267 266 266 267 268 269 268 267 265 262 261 259 258 256 255 254 254 255 257 258 257 256 257 260 263 266 268 268 269 269 270 271 272 273
280 283 284 285 285 285 286 287 288 287 286 285 285 286 287 288 287 285 283 282 283 284 285 285 283 281 280 284 286 286 286 286 286 286 285 284 283 282 281 279 276 274 269 266 264 263 262 262 263 265 266 268 268 268 268 267 267 266 266 265 263 261 259 258 257 256 255 254 255 256 258 258 256 255 256 259 263 265 267 268 268 269 270 271 272 274
283 285 285 286 286 286 287 288 289 289 288 288 288 288 289 289 288 287 286 286 285 285 285 284 282 280 278 280 281 283 283 283 283 283 282 281 282 283 283 282 281 279 276 271 267 263 261 259 259 259 260 263 266 268 269 269 267 266 265 264 262 259 257 257 256 256 255 254 255 257 258 256 254 254 257 260 263 265 266 267 268 269 269 270 271 273
285 285 286 286 286 286 288 290 290 290 290 289 290 291 291 289 288 287 287 288 287 286 285 283 281 279 279 280 282 282 281 279 277 276 275 276 279 282 285 285 283 279 274 269 265 262 260 260 259 259 259 259 260 263 267 268 268 267 267 264 261 257 256 256 256 256 255 255 257 259 260 259 258 258 258 260 263 267 269 270 270 271 270 271 272 273
286 286 287 287 286 286 288 290 290 290 289 289 290 291 292 292 291 290 290 290 289 287 285 282 279 278 280 282 284 283 279 276 275 276 278 283 287 290 289 287 283 277 270 267 266 266 266 267 267 266 264 260 257 256 258 262 265 266 266 263 259 255 253 253 255 256 256 257 259 260 261 261 261 260 258 259 264 268 271 272 272 272 272 272 273 274
288 288 288 287 286 286 287 289 290 289 289 289 289 290 291 292 293 293 293 292 290 287 285 282 280 280 281 283 285 284 281 281 283 286 287 288 289 288 287 286 283 279 273 271 271 272 274 276 276 275 273 267 260 253 249 252 257 261 262 260 257 253 251 251 254 256 258 259 260 261 260 260 260 260 259 259 262 268 272 273 273 273 274 274 275 276